Time,TemperatureF,DewpointF,PressureIn,WindDirection,WindDirectionDegrees,WindSpeedMPH,WindSpeedGustMPH,Humidity,HourlyPrecipIn,Conditions,Clouds,dailyrainin,SolarRadiationWatts/m^2,SoftwareType,DateUTC
2013-02-18 00:01:00,11.0,2.0,-100.00,North,4,5.0,14.0,65,0.00,,,0.00,0.000000,,2013-02-18 05:01:00,
2013-02-18 00:32:00,11.0,2.0,-100.00,North,4,5.0,14.0,65,0.00,,,0.00,0.000000,,2013-02-18 05:32:00,
2013-02-18 00:42:00,11.0,2.0,-100.00,North,4,5.0,14.0,65,0.00,,,0.00,0.000000,,2013-02-18 05:42:00,
2013-02-18 00:52:00,11.0,2.0,-100.00,North,4,5.0,14.0,65,0.00,,,0.00,0.000000,,2013-02-18 05:52:00,
2013-02-18 02:01:00,11.0,1.0,-100.00,NNE,29,5.0,15.0,62,-99.99,,,0.00,0.000000,,2013-02-18 07:01:00,
2013-02-18 02:22:00,11.0,1.0,-100.00,NNE,29,5.0,15.0,62,-99.99,,,0.00,0.000000,,2013-02-18 07:22:00,
2013-02-18 02:32:00,11.0,1.0,-100.00,NNE,29,5.0,15.0,62,-99.99,,,0.00,0.000000,,2013-02-18 07:32:00,
2013-02-18 02:42:00,11.0,1.0,-100.00,NNE,29,5.0,15.0,62,-99.99,,,0.00,0.000000,,2013-02-18 07:42:00,
2013-02-18 02:52:00,11.0,1.0,-100.00,NNE,29,5.0,15.0,62,-99.99,,,0.00,0.000000,,2013-02-18 07:52:00,
2013-02-18 03:01:00,13.0,1.0,-100.00,WNW,289,6.0,15.0,57,0.00,,,0.00,0.000000,,2013-02-18 08:01:00,
2013-02-18 03:33:00,13.0,1.0,-100.00,WNW,289,6.0,15.0,57,0.00,,,0.00,0.000000,,2013-02-18 08:33:00,
2013-02-18 03:42:00,13.0,1.0,-100.00,WNW,289,6.0,15.0,57,0.00,,,0.00,0.000000,,2013-02-18 08:42:00,
2013-02-18 03:52:00,13.0,1.0,-100.00,WNW,289,6.0,15.0,57,0.00,,,0.00,0.000000,,2013-02-18 08:52:00,
2013-02-18 04:01:00,14.0,-1.0,-100.00,NNW,330,7.0,15.0,51,0.00,,,0.00,0.000000,,2013-02-18 09:01:00,
2013-02-18 04:32:00,14.0,-1.0,-100.00,NNW,330,7.0,15.0,51,0.00,,,0.00,0.000000,,2013-02-18 09:32:00,
2013-02-18 04:42:00,14.0,-1.0,-100.00,NNW,330,7.0,15.0,51,0.00,,,0.00,0.000000,,2013-02-18 09:42:00,
2013-02-18 04:52:00,14.0,-1.0,-100.00,NNW,330,7.0,15.0,51,0.00,,,0.00,0.000000,,2013-02-18 09:52:00,
2013-02-18 05:01:00,15.0,-2.0,-100.00,WNW,300,6.0,14.0,45,0.00,,,0.00,0.000000,,2013-02-18 10:01:00,
2013-02-18 05:32:00,15.0,-2.0,-100.00,WNW,300,6.0,14.0,45,0.00,,,0.00,0.000000,,2013-02-18 10:32:00,
2013-02-18 05:42:00,15.0,-2.0,-100.00,WNW,300,6.0,14.0,45,0.00,,,0.00,0.000000,,2013-02-18 10:42:00,
2013-02-18 05:53:00,15.0,-2.0,-100.00,WNW,300,6.0,14.0,45,0.00,,,0.00,0.000000,,2013-02-18 10:53:00,
2013-02-18 06:01:00,15.0,-2.0,-100.00,West,260,4.0,11.0,46,0.00,,,0.00,0.000000,,2013-02-18 11:01:00,
2013-02-18 06:22:00,15.0,-2.0,-100.00,West,260,4.0,11.0,46,0.00,,,0.00,0.000000,,2013-02-18 11:22:00,
2013-02-18 06:33:00,15.0,-2.0,-100.00,West,260,4.0,11.0,46,0.00,,,0.00,0.000000,,2013-02-18 11:33:00,
2013-02-18 06:43:00,15.0,-2.0,-100.00,West,260,4.0,11.0,46,0.00,,,0.00,0.000000,,2013-02-18 11:43:00,
2013-02-18 06:53:00,15.0,-2.0,-100.00,West,260,4.0,11.0,46,0.00,,,0.00,0.000000,,2013-02-18 11:53:00,
2013-02-18 07:01:00,13.0,-2.0,-100.00,SSW,206,5.0,7.0,51,0.00,,,0.00,0.000000,,2013-02-18 12:01:00,
2013-02-18 07:32:00,13.0,-2.0,-100.00,SSW,206,5.0,7.0,51,0.00,,,0.00,0.000000,,2013-02-18 12:32:00,
2013-02-18 07:42:00,13.0,-2.0,-100.00,SSW,206,5.0,7.0,51,0.00,,,0.00,0.000000,,2013-02-18 12:42:00,
2013-02-18 07:54:00,13.0,-2.0,-100.00,SSW,206,5.0,7.0,51,0.00,,,0.00,0.000000,,2013-02-18 12:54:00,
2013-02-18 08:01:00,14.0,0.0,-100.00,SSW,197,7.0,10.0,53,0.00,,,0.00,23.000000,,2013-02-18 13:01:00,
2013-02-18 08:23:00,14.0,0.0,-100.00,SSW,197,7.0,10.0,53,0.00,,,0.00,23.000000,,2013-02-18 13:23:00,
2013-02-18 08:33:00,14.0,0.0,-100.00,SSW,197,7.0,10.0,53,0.00,,,0.00,23.000000,,2013-02-18 13:33:00,
2013-02-18 08:42:00,14.0,0.0,-100.00,SSW,197,7.0,10.0,53,0.00,,,0.00,23.000000,,2013-02-18 13:42:00,
2013-02-18 08:53:00,14.0,0.0,-100.00,SSW,197,7.0,10.0,53,0.00,,,0.00,23.000000,,2013-02-18 13:53:00,
2013-02-18 09:01:00,21.0,5.0,-100.00,SSW,212,4.0,9.0,50,0.00,,,0.00,252.000000,,2013-02-18 14:01:00,
2013-02-18 09:34:00,21.0,5.0,-100.00,SSW,212,4.0,9.0,50,0.00,,,0.00,252.000000,,2013-02-18 14:34:00,
2013-02-18 09:42:00,21.0,5.0,-100.00,SSW,212,4.0,9.0,50,0.00,,,0.00,252.000000,,2013-02-18 14:42:00,
2013-02-18 09:54:00,21.0,5.0,-100.00,SSW,212,4.0,9.0,50,0.00,,,0.00,252.000000,,2013-02-18 14:54:00,
2013-02-18 10:01:00,25.0,7.0,-100.00,SW,226,4.0,6.0,45,0.00,,,-99.99,469.000000,,2013-02-18 15:01:00,
2013-02-18 10:32:00,25.0,7.0,-100.00,SW,226,4.0,6.0,45,0.00,,,-99.99,469.000000,,2013-02-18 15:32:00,
2013-02-18 10:42:00,25.0,7.0,-100.00,SW,226,4.0,6.0,45,0.00,,,-99.99,469.000000,,2013-02-18 15:42:00,
2013-02-18 10:53:00,25.0,7.0,-100.00,SW,226,4.0,6.0,45,0.00,,,-99.99,469.000000,,2013-02-18 15:53:00,
2013-02-18 11:01:00,31.0,10.0,-100.00,SSW,213,4.0,7.0,40,0.00,,,0.00,638.000000,,2013-02-18 16:01:00,
2013-02-18 11:33:00,31.0,10.0,-100.00,SSW,213,4.0,7.0,40,0.00,,,0.00,638.000000,,2013-02-18 16:33:00,
2013-02-18 11:43:00,31.0,10.0,-100.00,SSW,213,4.0,7.0,40,0.00,,,0.00,638.000000,,2013-02-18 16:43:00,
2013-02-18 11:53:00,31.0,10.0,-100.00,SSW,213,4.0,7.0,40,0.00,,,0.00,638.000000,,2013-02-18 16:53:00,
2013-02-18 12:01:00,36.0,15.0,-100.00,SSW,210,0.0,7.0,41,0.00,,,0.00,758.000000,,2013-02-18 17:01:00,
2013-02-18 12:33:00,36.0,15.0,-100.00,SSW,210,0.0,7.0,41,0.00,,,0.00,758.000000,,2013-02-18 17:33:00,
2013-02-18 12:43:00,36.0,15.0,-100.00,SSW,210,0.0,7.0,41,0.00,,,0.00,758.000000,,2013-02-18 17:43:00,
2013-02-18 12:53:00,36.0,15.0,-100.00,SSW,210,0.0,7.0,41,0.00,,,0.00,758.000000,,2013-02-18 17:53:00,
2013-02-18 13:01:00,41.0,15.0,-100.00,SSW,194,0.0,0.0,34,0.00,,,0.00,818.000000,,2013-02-18 18:01:00,
2013-02-18 13:33:00,41.0,15.0,-100.00,SSW,194,0.0,0.0,34,0.00,,,0.00,818.000000,,2013-02-18 18:33:00,
2013-02-18 13:43:00,41.0,15.0,-100.00,SSW,194,0.0,0.0,34,0.00,,,0.00,818.000000,,2013-02-18 18:43:00,
2013-02-18 13:53:00,41.0,15.0,-100.00,SSW,194,0.0,0.0,34,0.00,,,0.00,818.000000,,2013-02-18 18:53:00,
2013-02-18 14:01:00,44.0,19.0,-100.00,South,177,0.0,0.0,36,0.00,,,0.00,717.000000,,2013-02-18 19:01:00,
2013-02-18 14:34:00,44.0,19.0,-100.00,South,177,0.0,0.0,36,0.00,,,0.00,717.000000,,2013-02-18 19:34:00,
2013-02-18 14:43:00,44.0,19.0,-100.00,South,177,0.0,0.0,36,0.00,,,0.00,717.000000,,2013-02-18 19:43:00,
2013-02-18 14:53:00,44.0,19.0,-100.00,South,177,0.0,0.0,36,0.00,,,0.00,717.000000,,2013-02-18 19:53:00,
2013-02-18 16:01:00,44.0,21.0,-100.00,SW,223,0.0,0.0,40,-99.99,,,0.00,495.000000,,2013-02-18 21:01:00,
2013-02-18 16:33:00,44.0,21.0,-100.00,SW,223,0.0,0.0,40,-99.99,,,0.00,495.000000,,2013-02-18 21:33:00,
2013-02-18 16:43:00,44.0,21.0,-100.00,SW,223,0.0,0.0,40,-99.99,,,0.00,495.000000,,2013-02-18 21:43:00,
2013-02-18 16:53:00,44.0,21.0,-100.00,SW,223,0.0,0.0,40,-99.99,,,0.00,495.000000,,2013-02-18 21:53:00,
2013-02-18 17:01:00,42.0,21.0,-100.00,SW,232,0.0,0.0,42,0.00,,,0.00,239.000000,,2013-02-18 22:01:00,
2013-02-18 17:33:00,42.0,21.0,-100.00,SW,232,0.0,0.0,42,0.00,,,0.00,239.000000,,2013-02-18 22:33:00,
2013-02-18 17:44:00,42.0,21.0,-100.00,SW,232,0.0,0.0,42,0.00,,,0.00,239.000000,,2013-02-18 22:44:00,
2013-02-18 17:54:00,42.0,21.0,-100.00,SW,232,0.0,0.0,42,0.00,,,0.00,239.000000,,2013-02-18 22:54:00,
2013-02-18 18:01:00,39.0,20.0,-100.00,South,191,0.0,0.0,47,0.00,,,0.00,68.000000,,2013-02-18 23:01:00,
2013-02-18 18:23:00,39.0,20.0,-100.00,South,191,0.0,0.0,47,0.00,,,0.00,68.000000,,2013-02-18 23:23:00,
2013-02-18 18:34:00,39.0,20.0,-100.00,South,191,0.0,0.0,47,0.00,,,0.00,68.000000,,2013-02-18 23:34:00,
2013-02-18 18:43:00,39.0,20.0,-100.00,South,191,0.0,0.0,47,0.00,,,0.00,68.000000,,2013-02-18 23:43:00,
2013-02-18 18:53:00,39.0,20.0,-100.00,South,191,0.0,0.0,47,0.00,,,0.00,68.000000,,2013-02-18 23:53:00,
2013-02-18 19:01:00,38.0,20.0,-100.00,SSW,197,0.0,0.0,48,0.00,,,0.00,1.000000,,2013-02-19 00:01:00,
2013-02-18 19:35:00,38.0,20.0,-100.00,SSW,197,0.0,0.0,48,0.00,,,0.00,1.000000,,2013-02-19 00:35:00,
2013-02-18 19:44:00,38.0,20.0,-100.00,SSW,197,0.0,0.0,48,0.00,,,0.00,1.000000,,2013-02-19 00:44:00,
2013-02-18 19:55:00,38.0,20.0,-100.00,SSW,197,0.0,0.0,48,0.00,,,0.00,1.000000,,2013-02-19 00:55:00,
2013-02-18 20:01:00,37.0,18.0,-100.00,SSW,206,0.0,0.0,46,0.00,,,0.00,0.000000,,2013-02-19 01:01:00,
2013-02-18 20:25:00,37.0,18.0,-100.00,SSW,206,0.0,0.0,46,0.00,,,0.00,0.000000,,2013-02-19 01:25:00,
2013-02-18 20:35:00,37.0,18.0,-100.00,SSW,206,0.0,0.0,46,0.00,,,0.00,0.000000,,2013-02-19 01:35:00,
2013-02-18 20:45:00,37.0,18.0,-100.00,SSW,206,0.0,0.0,46,0.00,,,0.00,0.000000,,2013-02-19 01:45:00,
2013-02-18 20:56:00,37.0,18.0,-100.00,SSW,206,0.0,0.0,46,0.00,,,0.00,0.000000,,2013-02-19 01:56:00,
2013-02-18 21:01:00,36.0,17.0,-100.00,SSW,204,0.0,0.0,46,0.00,,,0.00,0.000000,,2013-02-19 02:01:00,
2013-02-18 21:35:00,36.0,17.0,-100.00,SSW,204,0.0,0.0,46,0.00,,,0.00,0.000000,,2013-02-19 02:35:00,
2013-02-18 21:44:00,36.0,17.0,-100.00,SSW,204,0.0,0.0,46,0.00,,,0.00,0.000000,,2013-02-19 02:44:00,
2013-02-18 21:55:00,36.0,17.0,-100.00,SSW,204,0.0,0.0,46,0.00,,,0.00,0.000000,,2013-02-19 02:55:00,
2013-02-18 22:01:00,36.0,18.0,-100.00,SSW,202,0.0,0.0,48,0.00,,,0.00,0.000000,,2013-02-19 03:01:00,
2013-02-18 22:25:00,36.0,18.0,-100.00,SSW,202,0.0,0.0,48,0.00,,,0.00,0.000000,,2013-02-19 03:25:00,
2013-02-18 22:35:00,36.0,18.0,-100.00,SSW,202,0.0,0.0,48,0.00,,,0.00,0.000000,,2013-02-19 03:35:00,
2013-02-18 22:45:00,36.0,18.0,-100.00,SSW,202,0.0,0.0,48,0.00,,,0.00,0.000000,,2013-02-19 03:45:00,
2013-02-18 22:55:00,36.0,18.0,-100.00,SSW,202,0.0,0.0,48,0.00,,,0.00,0.000000,,2013-02-19 03:55:00,
2013-02-18 23:01:00,35.0,19.0,-100.00,SSW,202,0.0,0.0,51,0.00,,,0.00,0.000000,,2013-02-19 04:01:00,
2013-02-18 23:24:00,35.0,19.0,-100.00,SSW,202,0.0,0.0,51,0.00,,,0.00,0.000000,,2013-02-19 04:24:00,
2013-02-18 23:34:00,35.0,19.0,-100.00,SSW,202,0.0,0.0,51,0.00,,,0.00,0.000000,,2013-02-19 04:34:00,
2013-02-18 23:45:00,35.0,19.0,-100.00,SSW,202,0.0,0.0,51,0.00,,,0.00,0.000000,,2013-02-19 04:45:00,
2013-02-18 23:55:00,35.0,19.0,-100.00,SSW,202,0.0,0.0,51,0.00,,,0.00,0.000000,,2013-02-19 04:55:00,